Weather History for Marathon, FL

Change the Weather History Date:

Saturday, October 15, 2011

  Actual Average Record
Temperature  
Mean Temperature 77 °F 81 °F  
Max Temperature 81 °F 86 °F 91 °F (2002)
Min Temperature 73 °F 76 °F 72 °F (2004)
Degree Days  
Heating Degree Days 0 0  
Month to date heating degree days 0 0  
Since 1 July heating degree days 0 0  
Cooling Degree Days 12 16  
Month to date cooling degree days 233 256  
Year to date cooling degree days 4573 4210  
Growing Degree Days 27 (Base 50)    
Moisture  
Dew Point 74 °F    
Average Humidity 91    
Maximum Humidity 100    
Minimum Humidity 82    
Precipitation  
Precipitation 1.53 in 0.13 in 5.04 in (1999)
Month to date precipitation 6.48 2.61  
Year to date precipitation 21.65 39.16  
Snow  
Snow 0.00 in - - ()
Month to date snowfall 0.0  
Since 1 July snowfall 0.0  
Since 1 September snowfall 0.0  
Snow Depth 0.00 in    
Sea Level Pressure  
Sea Level Pressure 29.95 in    
Wind  
Wind Speed 12 mph (ENE)    
Max Wind Speed 23 mph    
Max Gust Speed 30 mph    
Visibility 6 miles    
Events Rain , Thunderstorm    
T = Trace of Precipitation, MM = Missing Value Source: NWS Daily Summary

Daily Weather History Graph

Daily Weather History Graph

Search for Another Location

Airport:

Trip Planner

Search our weather history database for the weather conditions in past years. The results will help you decide how hot, cold, wet, or windy it might be!

Date:

Astronomy

Oct. 15, 2011 Rise Set
Actual Time 7:22 AM EDT 6:57 PM EDT
Civil Twilight 6:59 AM EDT 7:20 PM EDT
Nautical Twilight 6:32 AM EDT 7:47 PM EDT
Astronomical Twilight 6:06 AM EDT 8:13 PM EDT
Moon 9:18 PM EDT (10/15) 10:20 AM EDT (10/15)
Length of Visible Light 12h 21m
Length of Day
11h 35m
Waning Gibbous, 89% of the Moon is Illuminated
Oct 15
Waning Gibbous
Oct 19
Last Quarter
Oct 26
New
Nov 2
First Quarter
Nov 10
Full

Hourly Weather History & Observations

Time (EDT) Temp. Heat Index Dew Point Humidity Pressure Visibility Wind Dir Wind Speed Gust Speed Precip Events Conditions
1:09 AM 80.6 °F 86.2 °F 75.2 °F 84% 29.91 in 10.0 mi East 5.8 mph - N/A   Mostly Cloudy
1:27 AM 80.6 °F 86.2 °F 75.2 °F 84% 29.91 in 10.0 mi Variable 3.5 mph - N/A   Scattered Clouds
1:53 AM 81.0 °F 86.7 °F 75.0 °F 82% 29.91 in 10.0 mi East 4.6 mph - N/A   Clear
2:53 AM 81.0 °F 86.7 °F 75.0 °F 82% 29.91 in 10.0 mi ENE 3.5 mph - N/A   Clear
3:53 AM 81.0 °F 86.7 °F 75.0 °F 82% 29.90 in 10.0 mi East 4.6 mph - N/A   Clear
4:53 AM 79.0 °F - 75.9 °F 90% 29.88 in 10.0 mi East 8.1 mph - 0.02 in   Scattered Clouds
5:53 AM 81.0 °F 86.7 °F 75.0 °F 82% 29.88 in 10.0 mi ENE 12.7 mph - N/A   Clear
6:53 AM 81.0 °F 87.3 °F 75.9 °F 85% 29.89 in 10.0 mi ENE 11.5 mph - N/A   Clear
7:53 AM 80.1 °F 85.4 °F 75.9 °F 87% 29.91 in 10.0 mi NE 9.2 mph - N/A   Scattered Clouds
8:07 AM 80.6 °F 86.2 °F 75.2 °F 84% 29.92 in 10.0 mi NE 17.3 mph 23.0 mph N/A Thunderstorm Thunderstorm
8:50 AM 78.8 °F - 75.2 °F 89% 29.93 in 2.0 mi NE 12.7 mph - 0.17 in Rain , Thunderstorm Light Rain
9:02 AM 78.8 °F - 75.2 °F 89% 29.93 in 10.0 mi NE 16.1 mph 24.2 mph N/A Thunderstorm Overcast
9:17 AM 78.8 °F - 75.2 °F 89% 29.93 in 7.0 mi NNE 18.4 mph 25.3 mph 0.00 in Rain Light Rain
9:28 AM 77.0 °F - 75.2 °F 94% 29.94 in 2.5 mi NE 23.0 mph 29.9 mph 0.03 in Rain , Thunderstorm Light Thunderstorms and Rain
9:32 AM 78.8 °F - 75.2 °F 89% 29.95 in 3.0 mi NE 21.9 mph 29.9 mph 0.03 in Rain , Thunderstorm Light Thunderstorms and Rain
9:53 AM 77.0 °F - 73.9 °F 90% 29.95 in 10.0 mi NE 18.4 mph 27.6 mph 0.03 in Thunderstorm Scattered Clouds
10:09 AM 78.8 °F - 75.2 °F 89% 29.95 in 8.0 mi NE 18.4 mph 25.3 mph N/A   Scattered Clouds
10:50 AM 80.6 °F 86.2 °F 75.2 °F 84% 29.96 in 10.0 mi ENE 17.3 mph 25.3 mph 0.00 in Rain , Thunderstorm Light Rain
10:53 AM 80.1 °F 84.5 °F 73.9 °F 81% 29.97 in 10.0 mi East 16.1 mph 25.3 mph 0.00 in Rain , Thunderstorm Light Thunderstorms and Rain
11:03 AM 78.8 °F - 73.4 °F 83% 29.97 in 1.8 mi East 16.1 mph 27.6 mph 0.09 in Rain , Thunderstorm Light Thunderstorms and Rain
11:07 AM 77.0 °F - 75.2 °F 94% 29.97 in 0.8 mi East 21.9 mph 28.8 mph 0.21 in Rain Heavy Rain
11:15 AM 75.2 °F - 73.4 °F 94% 29.98 in 1.2 mi East 17.3 mph 28.8 mph 0.24 in Rain Rain
11:33 AM 75.2 °F - 73.4 °F 94% 29.98 in 3.0 mi East 12.7 mph 20.7 mph 0.31 in Rain Rain
12:53 PM 77.0 °F - 75.0 °F 94% 29.97 in 5.0 mi ENE 11.5 mph - 0.09 in Rain Rain
1:53 PM 77.0 °F - 73.9 °F 90% 29.96 in 5.0 mi NE 13.8 mph - 0.12 in Rain Rain
2:53 PM 77.0 °F - 73.9 °F 90% 29.95 in 7.0 mi NE 18.4 mph - 0.05 in Rain Light Rain
3:11 PM 73.4 °F - 71.6 °F 94% 29.95 in 3.0 mi East 12.7 mph 23.0 mph 0.03 in Rain Rain
3:17 PM 73.4 °F - 71.6 °F 94% 29.95 in 2.5 mi East 9.2 mph 18.4 mph 0.06 in Rain Heavy Rain
3:31 PM 73.4 °F - 73.4 °F 100% 29.95 in 3.0 mi ENE 15.0 mph 18.4 mph 0.10 in Rain Light Rain
3:53 PM 75.0 °F - 73.0 °F 94% 29.95 in 4.0 mi East 13.8 mph 25.3 mph 0.15 in Rain Rain
4:03 PM 73.4 °F - 71.6 °F 94% 29.95 in 1.8 mi ENE 11.5 mph 23.0 mph 0.06 in Rain Heavy Rain
4:13 PM 73.4 °F - 73.4 °F 100% 29.96 in 2.0 mi East 10.4 mph 19.6 mph 0.12 in Rain Heavy Rain
4:18 PM 73.4 °F - 73.4 °F 100% 29.96 in 1.8 mi East 10.4 mph 19.6 mph 0.18 in Rain Heavy Rain
4:41 PM 73.4 °F - 73.4 °F 100% 29.96 in 1.5 mi ENE 12.7 mph - 0.37 in Rain Heavy Rain
4:47 PM 73.4 °F - 73.4 °F 100% 29.96 in 3.0 mi ENE 13.8 mph 23.0 mph 0.39 in Rain Heavy Rain
4:53 PM 73.9 °F - 73.0 °F 97% 29.96 in 4.0 mi ENE 15.0 mph 23.0 mph 0.40 in Rain Rain
5:05 PM 73.4 °F - 73.4 °F 100% 29.96 in 4.0 mi ENE 17.3 mph - 0.02 in Rain Rain
5:17 PM - - - N/A% 29.96 in 4.0 mi NE 17.3 mph - 0.04 in Rain Rain
5:53 PM - - - N/A% 29.96 in 7.0 mi ENE 11.5 mph - 0.07 in Rain Light Rain
6:53 PM 73.9 °F - 73.0 °F 97% 29.94 in 10.0 mi ENE 11.5 mph - 0.03 in   Overcast
7:53 PM 75.0 °F - 73.0 °F 94% 29.96 in 10.0 mi East 11.5 mph 20.7 mph 0.01 in Rain Light Rain
8:53 PM 77.0 °F - 71.1 °F 82% 29.99 in 10.0 mi East 13.8 mph 24.2 mph 0.01 in Rain Light Rain
9:53 PM 77.0 °F - 73.9 °F 90% 30.01 in 9.0 mi East 11.5 mph 18.4 mph 0.02 in Rain Light Rain
10:53 PM 75.9 °F - 73.0 °F 91% 30.00 in 10.0 mi East 8.1 mph - 0.03 in Rain Light Rain
11:53 PM 77.0 °F - 72.0 °F 84% 29.98 in 10.0 mi East 9.2 mph 18.4 mph 0.00 in   Scattered Clouds